H1 CPF 2 NER 2024 7 25 9 207 01 glonass133 H2 1403201 9133 40001 2024 7 25 0 0 0 2024 7 28 23 45 0 900 1 1 0 0 0 1 H9 10 0 60516 0.00000 0 -3875940.551 10034783.420 23127017.163 10 0 60516 900.00000 0 -6298697.292 8509699.899 23202494.840 10 0 60516 1800.00000 0 -8813625.930 7180198.381 22827167.447 10 0 60516 2700.00000 0 -11355024.922 6074177.510 22008189.910 10 0 60516 3600.00000 0 -13853897.643 5207310.505 20761347.470 10 0 60516 4500.00000 0 -16240640.530 4582547.569 19110759.594 10 0 60516 5400.00000 0 -18447772.961 4190166.808 17088420.528 10 0 60516 6300.00000 0 -20412595.225 4008371.599 14733584.449 10 0 60516 7200.00000 0 -22079663.319 4004409.195 12092006.362 10 0 60516 8100.00000 0 -23402976.632 4136163.168 9215053.004 10 0 60516 9000.00000 0 -24347786.232 4354151.942 6158700.841 10 0 60516 9900.00000 0 -24891947.247 4603848.133 2982440.894 10 0 60516 10800.00000 0 -25026758.016 4828219.449 -251887.657 10 0 60516 11700.00000 0 -24757250.459 4970382.233 -3481311.484 10 0 60516 12600.00000 0 -24101919.508 4976253.733 -6642959.865 10 0 60516 13500.00000 0 -23091903.440 4797089.200 -9675298.849 10 0 60516 14400.00000 0 -21769650.399 4391794.914 -12519337.584 10 0 60516 15300.00000 0 -20187128.289 3728917.950 -15119782.252 10 0 60516 16200.00000 0 -18403654.521 2788227.540 -17426114.448 10 0 60516 17100.00000 0 -16483437.933 1561820.498 -19393572.741 10 0 60516 18000.00000 0 -14492937.088 54703.629 -20984018.366 10 0 60516 18900.00000 0 -12498146.296 -1715171.679 -22166668.764 10 0 60516 19800.00000 0 -10561923.201 -3717424.296 -22918685.546 10 0 60516 20700.00000 0 -8741469.433 -5910286.160 -23225606.477 10 0 60516 21600.00000 0 -7086068.797 -8242129.616 -23081614.269 10 0 60516 22500.00000 0 -5635176.205 -10653415.800 -22489638.043 10 0 60516 23400.00000 0 -4416935.573 -13078983.206 -21461286.461 10 0 60516 24300.00000 0 -3447186.757 -15450581.746 -20016614.550 10 0 60516 25200.00000 0 -2729001.105 -17699547.533 -18183729.182 10 0 60516 26100.00000 0 -2252763.235 -19759507.932 -15998241.033 10 0 60516 27000.00000 0 -1996793.953 -21569005.193 -13502573.570 10 0 60516 27900.00000 0 -1928486.801 -23073930.385 -10745142.142 10 0 60516 28800.00000 0 -2005909.467 -24229667.055 -7779418.693 10 0 60516 29700.00000 0 -2179801.985 -25002855.989 -4662899.750 10 0 60516 30600.00000 0 -2395887.152 -25372708.097 -1455997.177 10 0 60516 31500.00000 0 -2597395.609 -25331810.992 1779127.217 10 0 60516 32400.00000 0 -2727698.993 -24886395.883 4979760.987 10 0 60516 33300.00000 0 -2732940.051 -24056053.710 8083851.404 10 0 60516 34200.00000 0 -2564548.655 -22872912.342 11031203.572 10 0 60516 35100.00000 0 -2181537.353 -21380309.050 13764643.416 10 0 60516 36000.00000 0 -1552479.241 -19631013.402 16231123.197 10 0 60516 36900.00000 0 -657084.106 -17685074.444 18382748.411 10 0 60516 37800.00000 0 512694.495 -15607381.537 20177706.408 10 0 60516 38700.00000 0 1952069.144 -13465040.126 21581078.993 10 0 60516 39600.00000 0 3643371.837 -11324671.353 22565523.378 10 0 60516 40500.00000 0 5556554.511 -9249747.604 23111808.348 10 0 60516 41400.00000 0 7650217.907 -7298074.560 23209195.097 10 0 60516 42300.00000 0 9873127.811 -5519524.422 22855654.977 10 0 60516 43200.00000 0 12166157.264 -3954114.544 22057919.377 10 0 60516 44100.00000 0 14464575.398 -2630511.517 20831359.964 10 0 60516 45000.00000 0 16700588.605 -1565023.131 19199700.677 10 0 60516 45900.00000 0 18806028.878 -761120.339 17194566.077 10 0 60516 46800.00000 0 20715077.381 -209509.170 14854873.820 10 0 60516 47700.00000 0 22366909.287 111250.610 12226082.314 10 0 60516 48600.00000 0 23708148.728 233606.474 9359307.600 10 0 60516 49500.00000 0 24695030.213 199402.315 6310326.445 10 0 60516 50400.00000 0 25295174.969 57864.723 3138485.271 10 0 60516 51300.00000 0 25488906.717 -136727.437 -94463.265 10 0 60516 52200.00000 0 25270050.941 -327590.154 -3325572.493 10 0 60516 53100.00000 0 24646183.605 -458088.707 -6491937.934 10 0 60516 54000.00000 0 23638318.903 -474385.412 -9531932.166 10 0 60516 54900.00000 0 22280049.493 -327966.968 -12386413.108 10 0 60516 55800.00000 0 20616176.126 22056.951 -14999881.110 10 0 60516 56700.00000 0 18700885.156 606982.238 -17321561.605 10 0 60516 57600.00000 0 16595551.445 1446950.172 -19306391.936 10 0 60516 58500.00000 0 14366259.749 2549864.876 -20915893.200 10 0 60516 59400.00000 0 12081149.071 3910834.340 -22118910.633 10 0 60516 60300.00000 0 9807691.357 5512158.603 -22892208.981 10 0 60516 61200.00000 0 7610018.135 7323865.659 -23220912.276 10 0 60516 62100.00000 0 5546406.022 9304772.616 -23098780.662 10 0 60516 63000.00000 0 3667024.871 11404027.891 -22528319.970 10 0 60516 63900.00000 0 2012040.967 13563070.204 -21520722.912 10 0 60516 64800.00000 0 610152.529 15717923.054 -20095643.786 10 0 60516 65700.00000 0 -522383.364 17801729.580 -18280811.511 10 0 60516 66600.00000 0 -1382193.778 19747422.764 -16111488.715 10 0 60516 67500.00000 0 -1978686.286 21490420.491 -13629787.292 10 0 60516 68400.00000 0 -2333404.696 22971233.844 -10883853.373 10 0 60516 69300.00000 0 -2478872.577 24137880.556 -7926937.171 10 0 60516 70200.00000 0 -2456974.217 24948003.533 -4816365.204 10 0 60516 71100.00000 0 -2316941.863 25370606.434 -1612434.318 10 0 60516 72000.00000 0 -2113034.457 25387334.112 1622751.442 10 0 60516 72900.00000 0 -1902005.939 24993244.479 4826478.988 10 0 60516 73800.00000 0 -1740470.014 24197039.468 7936636.489 10 0 60516 74700.00000 0 -1682272.604 23020745.199 10892912.584 10 0 60516 75600.00000 0 -1775982.966 21498854.298 13637961.538 10 0 60516 76500.00000 0 -2062609.518 19676965.672 16118512.034 10 0 60516 77400.00000 0 -2573637.113 17609977.929 18286398.321 10 0 60516 78300.00000 0 -3329469.126 15359911.089 20099494.009 10 0 60516 79200.00000 0 -4338340.947 12993446.678 21522530.663 10 0 60516 80100.00000 0 -5595751.863 10579287.935 22527785.425 10 0 60516 81000.00000 0 -7084440.772 8185449.370 23095624.435 10 0 60516 81900.00000 0 -8774908.612 5876587.815 23214891.350 10 0 60516 82800.00000 0 -10626467.533 3711485.567 22883133.074 10 0 60516 83700.00000 0 -12588774.809 1740789.946 22106657.793 10 0 60516 84600.00000 0 -14603789.136 5103.155 20900423.376 10 0 60516 85500.00000 0 -16608068.900 -1466498.095 19287757.431 10 0 60517 0.00000 0 -18535317.246 -2657451.443 17299913.615 10 0 60517 900.00000 0 -20319069.011 -3564165.602 14975470.737 10 0 60517 1800.00000 0 -21895404.579 -4195924.472 12359588.265 10 0 60517 2700.00000 0 -23205579.947 -4574245.187 9503128.595 10 0 60517 3600.00000 0 -24198459.368 -4731716.019 6461665.501 10 0 60517 4500.00000 0 -24832648.448 -4710364.623 3294397.265 10 0 60517 5400.00000 0 -25078236.798 -4559626.518 62986.327 10 0 60517 6300.00000 0 -24918075.943 -4334001.017 -3169651.048 10 0 60517 7200.00000 0 -24348537.945 -4090495.301 -6340580.341 10 0 60517 8100.00000 0 -23379722.332 -3885966.507 -9388084.288 10 0 60517 9000.00000 0 -22035102.564 -3774475.942 -12252873.041 10 0 60517 9900.00000 0 -20350627.170 -3804768.890 -14879244.335 10 0 60517 10800.00000 0 -18373313.924 -4017987.881 -17216170.317 10 0 60517 11700.00000 0 -16159396.776 -4445716.965 -19218289.545 10 0 60517 12600.00000 0 -13772104.044 -5108440.146 -20846784.880 10 0 60517 13500.00000 0 -11279161.481 -6014479.271 -22070130.647 10 0 60517 14400.00000 0 -8750124.947 -7159456.094 -22864695.368 10 0 60517 15300.00000 0 -6253654.054 -8526301.031 -23215189.340 10 0 60517 16200.00000 0 -3854839.964 -10085808.066 -23114949.517 10 0 60517 17100.00000 0 -1612697.751 -11797712.462 -22566057.282 10 0 60517 18000.00000 0 422073.580 -13612246.159 -21579287.795 10 0 60517 18900.00000 0 2208971.855 -15472105.992 -20173892.651 10 0 60517 19800.00000 0 3719136.862 -17314752.846 -18377220.579 10 0 60517 20700.00000 0 4936301.626 -19074946.194 -16224183.719 10 0 60517 21600.00000 0 5857212.165 -20687408.762 -13756579.803 10 0 60517 22500.00000 0 6491500.060 -22089510.687 -11022283.087 10 0 60517 23400.00000 0 6861014.821 -23223861.626 -8074319.350 10 0 60517 24300.00000 0 6998645.389 -24040702.991 -4969842.401 10 0 60517 25200.00000 0 6946681.312 -24500000.698 -1769031.429 10 0 60517 26100.00000 0 6754783.203 -24573151.057 1466069.851 10 0 60517 27000.00000 0 6477648.403 -24244228.457 4672750.158 10 0 60517 27900.00000 0 6172470.419 -23510722.406 7788840.872 10 0 60517 28800.00000 0 5896299.363 -22383732.696 10753916.295 10 0 60517 29700.00000 0 5703414.773 -20887613.946 13510460.972 10 0 60517 30600.00000 0 5642821.674 -19059083.589 16004981.717 10 0 60517 31500.00000 0 5755975.658 -16945829.751 18189042.986 10 0 60517 32400.00000 0 6074833.225 -14604676.079 20020205.838 10 0 60517 33300.00000 0 6620310.135 -12099379.055 21462852.479 10 0 60517 34200.00000 0 7401213.542 -9498148.503 22488880.588 10 0 60517 35100.00000 0 8413694.028 -6870993.520 23078253.987 10 0 60517 36000.00000 0 9641242.032 -4287003.314 23219398.867 10 0 60517 36900.00000 0 11055230.484 -1811675.312 22909437.548 10 0 60517 37800.00000 0 12615982.643 495599.010 22154254.687 10 0 60517 38700.00000 0 14274322.079 2583786.374 20968393.889 10 0 60517 39600.00000 0 15973541.362 4412108.560 19374785.827 10 0 60517 40500.00000 0 17651708.103 5951504.983 17404312.133 10 0 60517 41400.00000 0 19244212.475 7185600.082 15095212.603 10 0 60517 42300.00000 0 20686449.571 8111135.219 12492346.377 10 0 60517 43200.00000 0 21916523.821 8737847.287 9646320.919 10 0 60517 44100.00000 0 22877861.162 9087799.651 6612505.476 10 0 60517 45000.00000 0 23521618.155 9194194.255 3449948.361 10 0 60517 45900.00000 0 23808785.460 9099716.047 220219.716 10 0 60517 46800.00000 0 23711895.945 8854480.847 -3013796.918 10 0 60517 47700.00000 0 23216264.340 8513674.928 -6189139.471 10 0 60517 48600.00000 0 22320705.417 8134987.740 -9244003.407 10 0 60517 49500.00000 0 21037699.950 7775948.077 -12118953.685 10 0 60517 50400.00000 0 19393001.294 7491277.912 -14758087.908 10 0 60517 51300.00000 0 17424699.333 7330377.123 -17110127.296 10 0 60517 52200.00000 0 15181781.483 7335046.416 -19129413.824 10 0 60517 53100.00000 0 12722251.613 7537545.239 -20776794.155 10 0 60517 54000.00000 0 10110886.149 7959066.826 -22020373.583 10 0 60517 54900.00000 0 7416721.442 8608694.603 -22836126.127 10 0 60517 55800.00000 0 4710377.314 9482883.558 -23208349.880 10 0 60517 56700.00000 0 2061328.009 10565487.978 -23129959.923 10 0 60517 57600.00000 0 -464766.625 11828333.999 -22602614.226 10 0 60517 58500.00000 0 -2808559.776 13232312.645 -21636671.082 10 0 60517 59400.00000 0 -4919243.767 14728947.413 -20250979.692 10 0 60517 60300.00000 0 -6756412.762 16262370.860 -18472508.470 10 0 60517 61200.00000 0 -8291486.501 17771627.663 -16335818.510 10 0 60517 62100.00000 0 -9508637.718 19193208.195 -13882392.392 10 0 60517 63000.00000 0 -10405186.528 20463707.103 -11159831.097 10 0 60517 63900.00000 0 -10991446.999 21522496.065 -8220934.185 10 0 60517 64800.00000 0 -11290033.911 22314299.322 -5122680.637 10 0 60517 65700.00000 0 -11334659.960 22791564.434 -1925129.548 10 0 60517 66600.00000 0 -11168474.836 22916529.093 1309738.393 10 0 60517 67500.00000 0 -10842016.638 22662897.376 4519216.618 10 0 60517 68400.00000 0 -10410862.212 22017054.907 7641082.778 10 0 60517 69300.00000 0 -9933075.546 20978771.537 10614800.000 10 0 60517 70200.00000 0 -9466561.787 19561361.410 13382686.302 10 0 60517 71100.00000 0 -9066438.399 17791292.769 15891029.782 10 0 60517 72000.00000 0 -8782534.242 15707262.754 18091128.166 10 0 60517 72900.00000 0 -8657122.065 13358774.606 19940232.850 10 0 60517 73800.00000 0 -8722980.187 10804275.295 21402379.377 10 0 60517 74700.00000 0 -9001865.461 8108929.905 22449088.371 10 0 60517 75600.00000 0 -9503462.525 5342124.127 23059923.425 10 0 60517 76500.00000 0 -10224854.568 2574797.519 23222894.974 10 0 60517 77400.00000 0 -11150539.102 -123282.555 22934702.024 10 0 60517 78300.00000 0 -12252989.514 -2686193.881 22200806.489 10 0 60517 79200.00000 0 -13493740.328 -5054368.721 21035337.961 10 0 60517 80100.00000 0 -14824951.973 -7176835.527 19460829.858 10 0 60517 81000.00000 0 -16191390.579 -9013099.917 17507791.099 10 0 60517 81900.00000 0 -17532740.482 -10534586.645 15214120.642 10 0 60517 82800.00000 0 -18786152.675 -11725582.383 12624375.471 10 0 60517 83700.00000 0 -19888921.965 -12583640.075 9788905.647 10 0 60517 84600.00000 0 -20781179.703 -13119428.204 6762872.998 10 0 60517 85500.00000 0 -21408487.718 -13356031.879 3605172.664 10 0 60518 0.00000 0 -21724222.990 -13327736.012 377279.301 10 0 60518 900.00000 0 -21691651.287 -13078342.949 -2857960.499 10 0 60518 1800.00000 0 -21285600.684 -12659097.064 -6037560.587 10 0 60518 2700.00000 0 -20493663.811 -12126305.508 -9099632.939 10 0 60518 3600.00000 0 -19316876.808 -11538757.302 -11984601.062 10 0 60518 4500.00000 0 -17769846.061 -10955051.517 -14636366.042 10 0 60518 5400.00000 0 -15880317.152 -10430948.820 -17003401.528 10 0 60518 6300.00000 0 -13688204.183 -10016859.371 -19039755.907 10 0 60518 7200.00000 0 -11244120.472 -9755573.790 -20705942.154 10 0 60518 8100.00000 0 -8607472.426 -9680333.189 -21969698.448 10 0 60518 9000.00000 0 -5844196.539 -9813319.442 -22806605.557 10 0 60518 9900.00000 0 -3024233.974 -10164628.828 -23200549.930 10 0 60518 10800.00000 0 -218847.744 -10731771.570 -23144024.661 10 0 60518 11700.00000 0 2502106.497 -11499717.570 -22638263.584 10 0 60518 12600.00000 0 5072843.471 -12441485.757 -21693206.874 10 0 60518 13500.00000 0 7434135.741 -13519251.786 -20327299.647 10 0 60518 14400.00000 0 9535523.809 -14685927.320 -18567127.949 10 0 60518 15300.00000 0 11337158.701 -15887144.588 -16446899.475 10 0 60518 16200.00000 0 12811202.229 -17063563.101 -14007779.058 10 0 60518 17100.00000 0 13942728.457 -18153402.150 -11297091.583 10 0 60518 18000.00000 0 14730090.491 -19095093.179 -8367407.407 10 0 60518 18900.00000 0 15184738.845 -19829941.207 -5275527.550 10 0 60518 19800.00000 0 15330500.315 -20304683.919 -2081387.822 10 0 60518 20700.00000 0 15202348.621 -20473841.209 1153097.309 10 0 60518 21600.00000 0 14844719.197 -20301756.532 4365229.109 10 0 60518 22500.00000 0 14309439.413 -19764244.168 7492734.446 10 0 60518 23400.00000 0 13653361.573 -18849772.756 10474967.967 10 0 60518 24300.00000 0 12935798.342 -17560134.743 13254083.543 10 0 60518 25200.00000 0 12215868.540 -15910572.650 15776152.564 10 0 60518 26100.00000 0 11549864.923 -13929355.677 17992207.622 10 0 60518 27000.00000 0 10988754.702 -11656822.923 19859191.636 10 0 60518 27900.00000 0 10575917.953 -9143931.633 21340794.239 10 0 60518 28800.00000 0 10345219.259 -6450369.447 22408159.357 10 0 60518 29700.00000 0 10319494.017 -3642307.697 23040450.329 10 0 60518 30600.00000 0 10509513.653 -789887.756 23225261.478 10 0 60518 31500.00000 0 10913474.045 2035456.324 22958867.855 10 0 60518 32400.00000 0 11517029.697 4763728.695 22246307.754 10 0 60518 33300.00000 0 12293873.336 7329043.448 21101295.707 10 0 60518 34200.00000 0 13206837.752 9672126.615 19545966.693 10 0 60518 35100.00000 0 14209474.588 11742544.627 17610455.616 10 0 60518 36000.00000 0 15248044.500 13500566.525 15332319.215 10 0 60518 36900.00000 0 16263835.383 14918582.153 12755810.823 10 0 60518 37800.00000 0 17195711.089 15982017.105 9931021.494 10 0 60518 38700.00000 0 17982782.828 16689706.189 6912903.894 10 0 60518 39600.00000 0 18567089.765 17053710.056 3760198.098 10 0 60518 40500.00000 0 18896174.577 17098583.283 534280.674 10 0 60518 41400.00000 0 18925443.881 16860125.631 -2702039.716 10 0 60518 42300.00000 0 18620212.455 16383670.301 -5885755.612 10 0 60518 43200.00000 0 17957343.620 15721982.874 -8954897.716 10 0 60518 44100.00000 0 16926415.412 14932861.186 -11849750.226 10 0 60518 45000.00000 0 15530362.509 14076539.113 -14514019.751 10 0 60518 45900.00000 0 13785566.329 13213005.302 -16895934.277 10 0 60518 46800.00000 0 11721389.243 12399351.193 -18949250.364 10 0 60518 47700.00000 0 9379172.412 11687261.008 -20634148.916 10 0 60518 48600.00000 0 6810739.359 11120749.807 -21918002.499 10 0 60518 49500.00000 0 4076467.937 10734244.787 -22776000.001 10 0 60518 50400.00000 0 1243011.223 10551090.046 -23191617.460 10 0 60518 51300.00000 0 -1619237.860 10582536.839 -23156927.039 10 0 60518 52200.00000 0 -4438833.179 10827260.782 -22672739.238 10 0 60518 53100.00000 0 -7146002.296 11271425.213 -21748576.621 10 0 60518 54000.00000 0 -9675301.433 11889287.098 -20402480.360 10 0 60518 54900.00000 0 -11968089.571 12644319.302 -18660653.893 10 0 60518 55800.00000 0 -13974720.379 13490801.564 -16556950.886 10 0 60518 56700.00000 0 -15656362.534 14375813.150 -14132217.441 10 0 60518 57600.00000 0 -16986374.355 15241543.492 -11433501.042 10 0 60518 58500.00000 0 -17951177.090 16027823.899 -8513141.265 10 0 60518 59400.00000 0 -18550591.927 16674774.225 -5427759.359 10 0 60518 60300.00000 0 -18797627.943 17125453.519 -2237165.826 10 0 60518 61200.00000 0 -18717730.914 17328403.389 996793.308 10 0 60518 62100.00000 0 -18347525.304 17239977.214 4211429.535 10 0 60518 63000.00000 0 -17733102.743 16826357.077 7344421.528 10 0 60518 63900.00000 0 -16927929.185 16065173.250 10335018.191 10 0 60518 64800.00000 0 -15990458.803 14946657.511 13125212.102 10 0 60518 65700.00000 0 -14981554.867 13474280.872 15660860.860 10 0 60518 66600.00000 0 -13961825.854 11664847.770 17892734.836 10 0 60518 67500.00000 0 -12988988.584 9548041.252 19777471.289 10 0 60518 68400.00000 0 -12115368.999 7165436.492 21278416.594 10 0 60518 69300.00000 0 -11385645.506 4569022.057 22366340.386 10 0 60518 70200.00000 0 -10834929.688 1819288.749 23020007.843 10 0 60518 71100.00000 0 -10487265.203 -1017036.144 23226598.912 10 0 60518 72000.00000 0 -10354608.326 -3869516.473 22981966.008 10 0 60518 72900.00000 0 -10436333.529 -6666692.992 22290724.700 10 0 60518 73800.00000 0 -10719285.622 -9338816.660 21166174.863 10 0 60518 74700.00000 0 -11178377.064 -11820516.510 19630052.969 10 0 60518 75600.00000 0 -11777706.126 -14053291.497 17712119.349 10 0 60518 76500.00000 0 -12472149.489 -15987722.668 15449587.473 10 0 60518 77400.00000 0 -13209362.609 -17585313.290 12886405.522 10 0 60518 78300.00000 0 -13932103.591 -18819879.920 10072403.614 10 0 60518 79200.00000 0 -14580782.204 -19678436.095 7062322.957 10 0 60518 80100.00000 0 -15096125.693 -20161531.565 3914745.930 10 0 60518 81000.00000 0 -15421847.696 -20283033.126 690948.397 10 0 60518 81900.00000 0 -15507206.125 -20069356.833 -2546302.638 10 0 60518 82800.00000 0 -15309340.431 -19558184.814 -5733981.465 10 0 60518 83700.00000 0 -14795287.999 -18796721.991 -8810041.010 10 0 60518 84600.00000 0 -13943593.140 -17839567.632 -11714629.752 10 0 60518 85500.00000 0 -12745439.670 -16746293.027 -14391263.418 10 0 60519 0.00000 0 -11205258.639 -15578829.017 -16787927.621 10 0 60519 900.00000 0 -9340784.210 -14398774.125 -18858090.793 10 0 60519 1800.00000 0 -7182557.160 -13264739.176 -20561604.451 10 0 60519 2700.00000 0 -4772894.012 -12229838.596 -21865477.967 10 0 60519 3600.00000 0 -2164366.872 -11339435.431 -22744510.212 10 0 60519 4500.00000 0 582143.329 -10629233.781 -23181768.044 10 0 60519 5400.00000 0 3399739.053 -10123797.972 -23168903.292 10 0 60519 6300.00000 0 6218048.777 -9835559.438 -22706303.128 10 0 60519 7200.00000 0 8965914.870 -9764351.676 -21803071.964 10 0 60519 8100.00000 0 11574115.896 -9897491.423 -20476846.005 10 0 60519 9000.00000 0 13978011.390 -10210401.431 -18753444.625 10 0 60519 9900.00000 0 16120000.495 -10667747.711 -16666365.608 10 0 60519 10800.00000 0 17951693.704 -11225042.738 -14256134.081 10 0 60519 11700.00000 0 19435708.860 -11830646.859 -11569517.524 10 0 60519 12600.00000 0 20547018.064 -12428083.555 -8658621.767 10 0 60519 13500.00000 0 21273790.671 -12958571.226 -5579885.027 10 0 60519 14400.00000 0 21617698.422 -13363665.068 -2392988.992 10 0 60519 15300.00000 0 21593670.910 -13587897.989 840292.381 10 0 60519 16200.00000 0 21229112.417 -13581309.447 4057284.470 10 0 60519 17100.00000 0 20562613.455 -13301755.664 7195621.279 10 0 60519 18000.00000 0 19642211.359 -12716903.663 10194449.263 10 0 60519 18900.00000 0 18523272.986 -11805824.700 12995602.653 10 0 60519 19800.00000 0 17266088.319 -10560119.201 15544727.775 10 0 60519 20700.00000 0 15933275.739 -8984524.814 17792334.826 10 0 60519 21600.00000 0 14587107.594 -7096980.604 19694756.954 10 0 60519 22500.00000 0 13286867.903 -4928142.972 21214998.332 10 0 60519 23400.00000 0 12086352.782 -2520371.659 22323454.870 10 0 60519 24300.00000 0 11031618.165 73773.796 22998493.703 10 0 60519 25200.00000 0 10159069.191 2793466.439 23226880.088 10 0 60519 26100.00000 0 9493971.414 5571894.443 23004043.108 10 0 60519 27000.00000 0 9049446.532 8338800.407 22334174.556 10 0 60519 27900.00000 0 8825995.100 11023173.110 21230158.326 10 0 60519 28800.00000 0 8811566.765 13555980.592 19713330.810 10 0 60519 29700.00000 0 8982175.520 15872831.382 17813076.005 10 0 60519 30600.00000 0 9303034.538 17916453.206 15566262.208 10 0 60519 31500.00000 0 9730163.011 19638885.668 13016530.426 10 0 60519 32400.00000 0 10212397.266 21003295.031 10213447.716 10 0 60519 33300.00000 0 10693720.926 21985334.866 7211541.606 10 0 60519 34200.00000 0 11115815.002 22573995.210 4069234.490 10 0 60519 35100.00000 0 11420719.078 22771904.574 847699.172 10 0 60519 36000.00000 0 11553489.731 22595072.258 -2390341.369 10 0 60519 36900.00000 0 11464742.234 22072082.392 -5581845.500 10 0 60519 37800.00000 0 11112966.479 21242774.508 -8664690.601 10 0 60519 38700.00000 0 10466517.741 20156467.394 -11578891.513 10 0 60519 39600.00000 0 9505196.867 18869802.409 -14267774.972 10 0 60519 40500.00000 0 8221352.159 17444298.518 -16679086.308 10 0 60519 41400.00000 0 6620455.754 15943723.222 -18766006.443 10 0 60519 42300.00000 0 4721129.748 14431391.044 -20488059.263 10 0 60519 43200.00000 0 2554620.698 12967503.738 -21811892.088 10 0 60519 44100.00000 0 163744.327 11606644.065 -22711914.738 10 0 60519 45000.00000 0 -2398655.491 10395527.967 -23170785.701 10 0 60519 45900.00000 0 -5071669.330 9371108.554 -23179737.072 10 0 60519 46800.00000 0 -7788624.919 8559110.148 -22738733.045 10 0 60519 47700.00000 0 -10479634.540 7973052.309 -21856459.916 10 0 60519 48600.00000 0 -13074281.920 7613803.119 -20550148.620 10 0 60519 49500.00000 0 -15504337.856 7469678.844 -18845233.801 10 0 60519 50400.00000 0 -17706392.739 7517084.347 -16774856.364 10 0 60519 51300.00000 0 -19624297.790 7721666.163 -14379219.170 10 0 60519 52200.00000 0 -21211314.698 8039928.920 -11704808.170 10 0 60519 53100.00000 0 -22431885.378 8421246.575 -8803493.757 10 0 60519 54000.00000 0 -23262949.286 8810183.515 -5731529.293 10 0 60519 54900.00000 0 -23694754.334 9149027.735 -2548465.721 10 0 60519 55800.00000 0 -23731128.377 9380429.369 683997.120 10 0 60519 56700.00000 0 -23389200.602 9450033.452 3903200.651 10 0 60519 57600.00000 0 -22698584.885 9308995.924 7046736.513 10 0 60519 58500.00000 0 -21700059.591 8916276.667 10053651.148 10 0 60519 59400.00000 0 -20443799.135 8240612.574 12865622.987 10 0 60519 60300.00000 0 -18987231.283 7262086.941 15428089.699 10 0 60519 61200.00000 0 -17392609.700 5973228.131 17691303.901 10 0 60519 62100.00000 0 -15724403.074 4379590.105 19611297.137 10 0 60519 63000.00000 0 -14046609.683 2499788.793 21150733.675 10 0 60519 63900.00000 0 -12420109.448 364990.951 22279637.746 10 0 60519 64800.00000 0 -10900163.870 -1982125.131 22975980.142 10 0 60519 65700.00000 0 -9534168.156 -4488895.802 23226112.756 10 0 60519 66600.00000 0 -8359749.422 -7094623.398 23025042.281 10 0 60519 67500.00000 0 -7403290.536 -9732873.297 22376537.273 10 0 60519 68400.00000 0 -6678941.443 -12334022.532 21293065.786 10 0 60519 69300.00000 0 -6188159.637 -14827954.976 19795563.886 10 0 60519 70200.00000 0 -5919799.214 -17146791.520 17913038.615 10 0 60519 71100.00000 0 -5850744.964 -19227541.792 15682012.108 10 0 60519 72000.00000 0 -5947064.868 -21014566.651 13145816.867 10 0 60519 72900.00000 0 -6165632.322 -22461748.246 10353755.240 10 0 60519 73800.00000 0 -6456149.236 -23534276.318 7360139.157 10 0 60519 74700.00000 0 -6763483.865 -24209975.344 4223228.851 10 0 60519 75600.00000 0 -7030223.500 -24480116.409 1004091.678 10 0 60519 76500.00000 0 -7199332.744 -24349679.503 -2234595.997 10 0 60519 77400.00000 0 -7216803.357 -23837055.335 -5429779.412 10 0 60519 78300.00000 0 -7034181.937 -22973199.690 -8519263.354 10 0 60519 79200.00000 0 -6610866.934 -21800276.756 -11442932.137 10 0 60519 80100.00000 0 -5916076.445 -20369849.631 -14143926.691 10 0 60519 81000.00000 0 -4930402.479 -18740695.374 -16569755.056 10 0 60519 81900.00000 0 -3646885.210 -16976337.705 -18673314.153 10 0 60519 82800.00000 0 -2071561.333 -15142402.093 -20413802.854 10 0 60519 83700.00000 0 -223463.055 -13303904.997 -21757508.920 10 0 60519 84600.00000 0 1865932.459 -11522591.214 -22678455.177 10 0 60519 85500.00000 0 4153780.277 -9854430.726 -23158893.290 99